This is the latest recevied weather packets stored in our database for station/object KJ5JYX. If no packets are shown the sender has not sent any weather packets the latest 10 day(s).
| Time | Temp. | Humidity | Pressure | Rain* | Wind** | Luminosity | Snow |
|---|---|---|---|---|---|---|---|
| 1777730092 | 13.33° C | 88% | 1024.4 hPa | 0 mm | - | 41 W/m² | - |
| 1777729789 | 12.78° C | 90% | 1024.6 hPa | 0 mm | - | 50 W/m² | - |
| 1777729486 | 12.78° C | 92% | 1024.3 hPa | 0 mm | - | 59 W/m² | - |
| 1777729183 | 12.78° C | 92% | 1024.1 hPa | 0 mm | - | 38 W/m² | - |
| 1777728879 | 12.22° C | 95% | 1024.3 hPa | 0 mm | - | 37 W/m² | - |
| 1777728577 | 11.67° C | 96% | 1024.1 hPa | 0 mm | - | 35 W/m² | - |
| 1777728273 | 11.67° C | 97% | 1023.9 hPa | 0 mm | - | 34 W/m² | - |
| 1777727971 | 10.56° C | 98% | 1023.8 hPa | 0 mm | - | 33 W/m² | - |
| 1777727667 | 10.56° C | 99% | 1023.8 hPa | 0 mm | - | 48 W/m² | - |
| 1777727365 | 10.56° C | 99% | 1023.8 hPa | 0 mm | - | 30 W/m² | - |
| 1777727062 | 10° C | 99% | 1023.8 hPa | 0 mm | - | 29 W/m² | - |
| 1777726759 | 9.44° C | 99% | 1023.7 hPa | 0 mm | - | 28 W/m² | - |
| 1777726457 | 8.89° C | 99% | 1023.6 hPa | 0 mm | - | 26 W/m² | - |
| 1777726153 | 8.89° C | 99% | 1023.7 hPa | 0 mm | - | 25 W/m² | - |
| 1777725850 | 8.89° C | 99% | 1023.4 hPa | 0 mm | - | 24 W/m² | - |
| 1777725548 | 8.89° C | 99% | 1023.6 hPa | 0 mm | - | 22 W/m² | - |
| 1777725245 | 8.89° C | 99% | 1023.4 hPa | 0 mm | - | 20 W/m² | - |
| 1777724942 | 8.33° C | 99% | 1023.3 hPa | 0 mm | - | 20 W/m² | - |
| 1777724638 | 7.78° C | 99% | 1023.2 hPa | 0 mm | - | 16 W/m² | - |
| 1777724336 | 7.78° C | 99% | 1023.3 hPa | 0 mm | - | 14 W/m² | - |
| 1777724033 | 7.78° C | 99% | 1022.9 hPa | 0 mm | - | 12 W/m² | - |
| 1777723731 | 7.78° C | 99% | 1022.8 hPa | 0 mm | - | 9 W/m² | - |
| 1777723426 | 7.78° C | 99% | 1022.8 hPa | 0 mm | - | 7 W/m² | - |
| 1777723124 | 7.78° C | 99% | 1022.8 hPa | 0 mm | - | 5 W/m² | - |
| 1777722821 | 7.78° C | 99% | 1022.6 hPa | 0 mm | - | 3 W/m² | - |
* Rain latest hour (hover to see other rain measurements)
** Current wind speed in m/s (hover to see current wind gust speed)